Lapse_Rate
5.7 5.7 6.0 5.8 5.7 6.1 7.3 7.2 7.2 7.0 7.0 6.8 6.4 6.5 6.1 6.3 6.5 5.6 5.4 5.3 5.5 5.7 5.9 6.0 6.0 6.1 6.0 5.9 6.0 5.9 6.0 5.8 5.9 5.9 5.9 6.0 6.0 6.1 6.1 6.1 5.9 6.0 6.0 5.9 6.1 6.1 6.0 6.0 6.0
5.9 6.3 5.9 5.6 5.6 6.5 6.9 6.8 6.9 6.7 6.5 6.3 6.3 6.1 5.7 5.7 6.0 5.7 5.2 5.1 5.4 5.8 5.7 5.8 6.0 6.1 5.9 5.9 6.0 5.9 5.8 5.9 5.9 5.8 5.8 6.0 6.1 6.3 6.2 6.1 6.1 6.2 6.2 6.2 6.3 6.1 6.0 6.0 6.0
5.8 5.8 5.5 5.4 5.8 6.5 6.8 6.5 6.5 6.2 6.3 6.1 6.1 5.8 5.5 5.4 5.3 5.2 5.5 5.5 5.3 5.6 5.7 5.6 5.6 5.7 5.8 5.8 5.7 5.8 5.9 5.9 5.9 5.8 6.0 6.1 6.2 6.2 6.3 6.3 6.0 6.2 6.4 6.3 6.3 6.2 6.0 6.1 5.9
5.9 5.0 5.3 5.7 6.6 6.8 6.9 6.4 6.1 6.2 6.2 5.7 5.6 5.6 5.4 5.4 5.3 5.4 5.7 5.5 5.4 6.0 5.6 5.6 5.6 5.6 5.8 5.9 6.0 6.0 6.1 6.0 6.0 6.1 6.1 6.2 6.2 6.2 6.3 6.3 6.4 6.5 6.6 6.5 6.4 6.3 6.2 6.0 5.9
5.2 5.1 5.1 5.5 6.2 6.7 6.5 6.1 5.8 5.8 5.8 5.8 5.6 5.4 5.0 5.4 5.3 5.0 5.3 5.7 5.5 5.8 5.7 5.7 5.8 5.6 5.8 5.9 6.1 6.1 6.1 6.0 6.0 6.2 6.3 6.3 6.3 6.5 6.5 6.4 6.5 6.7 6.6 6.7 6.6 6.3 6.2 6.1 6.0
5.2 5.6 5.3 5.6 6.5 6.5 6.2 6.0 5.9 5.8 5.7 5.6 5.5 5.3 5.0 5.2 5.0 5.1 5.3 5.7 5.3 6.0 5.8 5.8 5.8 5.7 5.9 6.0 6.2 6.1 6.1 6.1 6.1 6.2 6.2 6.4 6.4 6.4 6.5 6.6 6.5 6.6 6.8 6.8 6.4 6.2 6.2 6.1 5.9
5.3 5.5 5.7 6.2 6.5 6.3 6.1 6.0 6.1 5.7 5.8 5.6 5.5 5.1 5.0 5.1 5.1 5.0 5.4 5.3 5.1 5.9 5.9 5.8 5.9 5.9 5.9 6.1 6.1 6.0 6.2 6.0 6.0 6.2 6.4 6.5 6.5 6.5 6.5 6.5 6.6 6.7 6.7 6.5 6.3 6.1 6.1 5.9 5.8
5.4 5.3 5.3 5.9 6.1 6.1 6.1 6.1 6.1 6.1 5.9 5.7 5.3 5.0 4.9 5.2 5.1 5.0 4.8 5.2 5.2 5.4 5.6 5.7 5.8 6.0 6.0 6.2 6.1 6.0 6.1 6.0 6.2 6.3 6.5 6.5 6.5 6.6 6.6 6.4 6.4 6.6 6.6 6.3 6.1 6.1 6.0 5.9 5.9
5.5 5.5 5.1 5.7 6.9 6.0 6.2 6.1 6.1 6.1 5.8 5.9 5.5 5.2 5.1 5.1 5.1 5.1 5.1 5.2 5.0 5.1 5.3 5.3 5.5 6.0 6.0 6.2 6.2 6.2 6.3 6.3 6.3 6.4 6.5 6.6 6.6 6.7 6.8 6.5 6.3 6.4 6.4 6.3 6.2 6.0 5.9 5.8 5.6
5.2 5.1 5.4 5.6 5.9 6.5 6.3 6.0 6.2 5.8 6.0 5.8 5.5 5.3 5.2 5.0 5.1 5.1 5.2 5.2 5.3 5.3 5.5 5.4 5.3 5.9 5.9 6.1 6.1 6.2 6.4 6.4 6.2 6.1 6.5 6.5 6.4 6.8 6.7 6.3 6.0 6.2 6.0 5.9 6.0 6.0 5.9 5.5 5.7
5.1 5.0 5.5 6.0 5.8 6.5 5.9 5.7 5.8 6.2 5.9 6.1 5.7 5.4 5.5 5.2 5.1 5.2 5.2 5.2 5.1 5.1 5.2 5.0 5.2 5.0 5.6 5.9 6.0 5.7 6.2 6.0 5.9 6.2 6.3 6.1 6.2 6.3 6.5 6.2 5.8 5.9 5.7 6.0 6.0 6.2 6.1 5.9 5.7
5.6 5.7 5.4 5.6 5.4 6.4 5.8 6.0 6.1 6.1 6.0 5.7 5.4 5.0 5.4 5.4 5.3 5.3 5.4 5.3 5.2 5.2 5.5 5.4 5.9 5.2 5.3 5.9 5.7 5.5 6.1 5.9 6.2 5.9 5.9 6.4 6.0 6.1 6.0 5.9 5.5 6.2 5.8 5.7 6.0 5.8 6.0 5.8 5.5
5.3 6.0 5.5 5.8 6.0 6.0 6.1 6.2 6.2 5.9 6.3 5.5 5.4 5.1 5.3 5.6 5.3 5.4 5.4 5.2 5.1 5.1 5.5 5.6 6.1 6.0 5.5 5.5 5.1 5.0 5.3 5.7 5.9 5.8 5.9 6.2 5.7 6.0 5.4 6.0 6.3 6.1 6.1 5.7 5.3 5.5 5.3 5.5 6.0
5.7 5.9 5.9 5.9 5.9 5.9 6.6 6.5 6.1 6.2 5.8 5.4 5.5 5.4 5.5 5.7 5.3 5.2 5.2 5.0 4.9 4.8 5.8 5.8 5.9 6.1 6.1 5.8 5.2 5.2 5.4 5.3 5.9 5.4 6.1 5.4 5.5 5.9 5.9 5.7 5.6 5.8 6.1 5.5 5.6 5.5 5.4 5.5 6.3
6.0 5.6 6.0 5.5 5.4 5.9 6.6 6.6 6.1 6.1 5.7 5.4 5.5 5.5 5.6 5.8 5.4 5.1 5.0 4.9 5.0 4.7 6.0 6.2 5.9 6.0 6.0 5.4 5.4 4.9 4.7 5.4 5.9 5.6 6.0 5.4 6.4 5.8 5.8 5.6 5.4 5.4 5.4 5.8 5.3 5.3 5.3 5.4 5.9
6.0 5.7 5.9 5.5 5.6 5.7 6.2 6.1 5.6 5.9 5.6 5.5 5.6 5.4 5.5 5.8 5.4 5.0 4.9 4.9 5.0 5.1 5.9 5.6 5.9 5.7 5.7 5.6 5.6 5.2 5.3 5.0 5.7 5.8 5.7 5.7 5.8 5.3 6.5 5.0 5.5 5.7 6.2 5.3 5.5 5.3 5.3 5.6 6.2
5.8 5.5 5.6 5.4 5.3 6.1 6.0 5.8 5.8 5.9 5.7 5.7 5.6 5.5 5.5 5.7 5.3 5.0 4.8 4.8 4.8 5.6 5.8 5.3 5.4 5.6 5.4 5.5 5.4 5.3 5.4 5.8 5.3 5.4 5.9 5.8 5.7 5.5 5.5 5.6 5.2 5.4 5.3 5.9 5.4 5.7 5.4 5.7 5.7
6.4 5.9 5.8 5.4 5.0 5.4 5.8 5.8 5.4 5.7 5.7 5.9 5.7 5.7 5.5 5.6 5.4 5.0 4.7 4.8 4.9 5.5 5.6 4.9 5.3 5.8 5.6 5.3 5.3 5.2 5.4 5.2 5.3 5.1 5.4 5.5 5.6 5.6 5.7 5.6 5.5 5.5 6.0 5.2 5.6 5.7 5.8 5.6 5.7
7.1 5.7 5.8 5.1 5.4 5.6 6.0 5.6 5.4 5.6 5.9 6.1 5.6 5.8 5.7 5.4 5.3 5.0 4.8 4.7 4.8 5.0 5.7 5.7 5.7 5.9 5.5 5.3 5.1 5.2 5.1 5.3 5.4 5.3 5.4 5.2 5.3 5.5 5.7 5.9 5.3 4.4 5.9 5.6 5.7 5.7 5.6 5.7 5.6
7.3 6.2 5.6 5.4 4.7 5.0 5.4 5.4 5.3 5.6 5.7 5.7 5.9 5.8 5.7 5.4 5.1 5.0 5.0 4.8 4.7 5.1 5.4 5.5 5.8 5.5 5.6 5.6 5.4 5.5 5.4 5.7 5.6 5.7 5.5 5.4 5.5 5.5 5.6 5.5 5.7 5.8 5.8 5.7 6.0 6.2 5.9 5.6 6.1
6.5 6.8 6.8 5.2 5.2 4.9 5.1 5.1 5.1 5.2 5.5 5.8 5.8 5.8 5.7 5.5 5.4 5.0 4.9 5.0 4.8 4.8 5.5 5.5 5.3 5.5 5.6 5.8 5.9 5.6 5.4 5.8 5.3 5.6 5.7 5.5 5.8 5.6 5.4 5.5 5.9 5.3 5.8 5.7 5.5 6.0 5.9 5.7 5.7
7.9 7.1 6.0 5.9 5.0 4.4 5.4 5.1 5.1 4.9 5.1 5.8 5.8 5.5 5.2 5.3 5.9 5.5 5.1 4.7 5.0 5.0 5.4 5.9 5.7 5.5 5.7 5.8 5.5 5.4 5.5 5.4 5.7 5.7 5.6 5.5 5.6 5.7 5.6 5.8 5.8 5.8 5.4 5.9 5.2 5.7 5.3 5.8 5.8
7.3 7.2 7.5 6.5 5.2 5.0 5.6 6.0 5.8 5.2 5.6 5.3 5.8 5.7 5.7 5.3 5.2 5.3 5.5 5.0 4.9 5.2 5.2 5.8 5.8 5.7 5.6 5.7 5.8 5.5 5.6 5.7 5.8 6.1 6.1 5.5 5.6 5.8 5.9 5.7 5.6 5.4 5.7 5.2 5.1 5.7 5.5 5.3 6.0
7.7 7.3 6.9 6.6 5.6 5.3 6.9 7.0 5.4 5.7 5.9 6.2 5.7 5.4 5.3 5.6 5.6 5.5 5.6 5.3 5.0 5.4 5.3 5.5 5.6 5.7 5.6 5.7 5.6 5.8 5.8 5.7 6.1 5.8 5.7 5.6 5.5 5.8 5.7 5.9 6.0 5.7 4.7 5.9 5.3 5.7 5.6 5.5 5.5
8.7 8.1 7.7 6.5 5.4 6.7 7.0 7.2 6.3 6.3 6.8 6.6 6.0 6.2 5.9 5.1 5.7 5.7 5.2 5.2 5.4 5.4 5.6 5.6 5.5 5.8 5.8 5.8 5.8 5.8 5.8 5.8 5.7 5.7 5.7 5.8 5.8 5.8 6.2 5.9 5.9 5.7 5.9 5.7 5.4 5.9 5.6 5.6 5.6
9.1 8.3 8.6 7.1 7.1 6.6 6.7 7.3 6.9 6.8 6.5 6.0 5.2 5.8 5.3 5.6 5.4 5.8 5.3 5.5 5.2 5.6 5.2 5.8 5.5 5.5 5.9 5.9 5.8 5.9 5.8 5.6 5.4 5.4 5.6 5.8 5.9 5.0 5.8 5.5 5.8 6.0 5.9 5.7 5.8 5.7 5.6 5.5 5.5
9.3 8.9 9.0 8.6 7.8 7.8 6.9 6.6 6.8 6.8 6.6 5.8 6.7 7.1 6.2 6.2 5.9 5.6 5.7 5.4 5.8 5.0 4.9 5.0 5.2 5.2 5.6 5.6 5.6 5.8 5.9 5.9 6.0 5.7 5.5 5.6 5.8 5.7 5.5 5.6 5.5 5.7 6.1 6.0 5.9 5.8 5.7 5.9 5.6
9.3 9.2 9.1 7.9 8.1 7.9 7.5 6.7 6.7 7.1 7.7 7.5 6.9 6.5 6.5 6.5 6.2 5.7 5.4 5.4 5.8 5.6 5.2 5.2 5.6 5.4 5.6 5.5 5.5 5.6 5.6 5.8 5.9 5.9 5.5 5.1 5.4 5.8 5.7 5.4 5.5 5.6 5.8 5.9 5.8 5.7 5.8 6.1 5.8
8.9 9.2 9.5 9.5 9.2 8.3 8.5 7.4 7.0 7.7 8.0 7.7 6.9 6.4 6.2 5.9 6.2 5.6 5.2 6.0 5.4 5.5 6.0 5.7 6.0 5.9 5.9 5.8 5.6 5.4 5.3 5.3 5.5 5.7 5.7 5.1 5.4 5.7 5.7 5.3 5.4 5.6 5.5 5.5 5.6 5.7 5.8 5.4 5.5
9.5 9.7 9.7 9.6 9.3 9.4 9.4 8.1 7.8 7.2 7.7 7.8 7.7 7.2 6.3 6.0 5.6 6.1 5.9 5.0 5.3 6.0 5.6 6.2 5.8 6.0 5.7 5.6 5.2 5.3 5.4 5.1 5.2 5.3 5.4 5.5 5.2 5.1 5.4 5.2 5.1 5.3 5.5 5.4 5.4 5.5 5.7 5.8 5.8
Wind_Speed
12 15 10 7 1 4 12 16 14 18 15 17 21 16 18 13 12 14 17 12 23 19 19 16 13 12 12 11 10 10 12 13 13 14 14 15 17 17 17 16 17 18 18 18 19 19 17 17 14
12 14 6 4 1 2 11 13 16 14 16 24 19 20 22 24 26 20 17 19 16 20 21 17 13 14 12 12 12 12 12 13 14 14 14 15 16 15 17 17 17 18 18 17 19 18 16 16 12
10 6 3 4 1 4 12 14 15 16 10 22 7 10 14 20 20 20 20 20 16 20 22 17 15 14 13 13 13 13 13 14 14 14 14 16 17 17 18 17 16 16 16 16 17 17 16 14 10
6 2 0 2 7 9 16 17 18 12 19 21 18 16 22 20 23 22 19 17 14 19 21 17 15 13 13 13 13 13 13 14 15 14 14 16 17 17 17 15 13 14 14 13 15 16 15 12 9
1 3 2 2 6 19 16 20 16 12 14 14 21 21 23 24 22 18 15 15 18 18 22 17 15 13 14 13 13 14 13 13 14 13 14 16 16 16 16 14 15 16 16 17 17 16 14 11 7
1 2 2 5 11 19 17 18 14 14 15 4 20 20 19 23 15 13 18 5 13 19 22 19 16 14 14 13 13 13 13 13 13 14 14 15 16 16 16 17 18 18 17 16 15 15 13 9 4
2 2 4 7 10 19 19 18 15 18 14 20 17 22 12 17 12 15 21 18 15 21 21 19 18 16 14 14 13 14 13 13 14 15 15 16 15 15 15 15 16 16 15 15 15 14 13 9 5
4 2 4 5 11 15 20 15 18 18 10 17 17 20 12 14 18 15 18 15 8 16 10 19 19 17 17 14 13 14 14 14 15 15 16 17 15 14 16 14 13 14 14 14 13 13 13 12 9
5 4 5 5 17 16 23 15 9 11 13 16 8 22 20 17 17 15 18 15 12 14 14 18 17 12 17 14 13 13 14 15 14 11 13 19 15 13 10 13 12 13 15 15 15 13 9 2 6
8 4 11 15 9 16 19 16 13 11 9 11 21 25 23 21 16 14 11 15 13 17 11 13 11 17 17 16 15 13 13 12 10 9 11 10 8 14 13 11 11 10 5 8 12 14 13 15 10
5 4 9 14 6 15 21 14 17 9 10 12 23 22 18 19 16 14 12 13 17 20 15 12 6 13 11 12 9 13 10 14 12 2 11 10 11 13 12 8 6 8 8 7 9 11 12 23 15
10 5 13 12 20 19 17 14 18 14 9 21 21 21 19 18 17 15 13 14 17 16 13 13 10 4 13 12 10 13 11 20 11 10 16 9 6 6 1 11 14 13 12 26 10 9 7 2 4
6 3 6 4 16 20 17 19 15 3 14 23 22 20 19 17 15 13 15 14 15 14 15 11 7 3 1 6 8 6 15 15 16 15 12 12 6 3 14 8 8 10 7 3 5 12 8 8 5
3 3 9 6 9 17 20 16 18 11 14 23 22 20 17 17 16 13 14 14 14 13 15 11 7 5 6 4 6 5 8 13 14 8 20 12 11 13 5 7 4 2 5 4 13 19 9 4 9
4 6 3 6 13 8 8 14 8 14 21 23 21 18 15 15 16 14 13 14 15 11 17 8 12 3 4 4 3 4 7 11 10 13 25 19 13 14 9 4 1 6 1 1 1 7 11 5 7
3 9 8 2 4 9 7 6 2 13 20 22 21 17 16 14 16 14 13 11 14 13 14 13 15 9 6 3 2 3 1 14 6 10 7 6 6 19 15 6 3 3 7 7 5 3 4 4 5
9 6 10 8 12 9 5 8 10 15 18 21 17 15 16 14 15 13 15 13 15 13 9 10 9 12 5 5 2 4 15 6 10 9 9 6 6 2 5 1 3 3 9 5 4 3 4 2 2
7 7 13 11 10 14 13 5 5 7 13 14 14 11 13 14 17 14 16 14 16 13 8 12 7 10 6 4 2 3 3 1 9 7 6 5 4 5 5 5 3 3 2 4 1 5 3 2 4
9 3 4 8 17 12 12 5 4 5 5 6 17 13 12 16 18 15 14 19 16 14 7 8 9 8 3 4 4 2 3 2 4 8 8 8 5 3 5 5 5 12 6 3 4 3 5 3 3
16 16 6 7 13 10 12 10 1 8 5 4 5 11 17 15 18 13 12 16 17 15 12 8 10 9 5 3 2 2 2 2 2 8 9 7 9 5 4 5 5 7 5 2 2 2 3 2 3
11 16 8 2 12 19 15 6 8 4 12 11 12 9 11 13 14 18 15 14 17 16 14 12 9 9 8 3 2 2 3 3 3 1 2 5 7 6 3 7 10 7 7 5 5 2 5 2 1
13 19 16 14 12 9 9 5 6 9 13 13 19 12 13 11 22 20 17 16 18 16 14 15 14 10 8 6 6 7 5 3 3 2 5 6 8 9 8 9 13 8 16 11 8 1 3 4 3
15 22 21 23 11 9 13 5 7 18 18 19 20 17 16 20 20 11 20 13 21 17 16 13 11 11 6 8 3 4 5 4 6 5 5 9 12 6 8 6 7 5 9 10 4 6 5 3 3
21 11 16 12 5 7 18 14 12 17 20 19 21 15 15 17 18 13 7 20 15 17 15 15 12 11 7 7 8 5 1 4 5 5 4 5 4 3 5 6 3 3 15 8 4 4 4 4 5
15 15 4 2 4 5 6 11 9 22 22 25 17 9 16 9 6 16 12 12 18 17 18 17 15 11 10 8 7 5 6 3 2 5 5 2 1 4 6 2 4 4 5 9 2 5 5 6 5
13 18 4 1 6 2 12 7 11 22 18 22 20 22 11 16 13 9 7 6 15 13 11 14 14 12 11 9 8 7 6 5 5 6 5 4 2 3 8 6 7 5 8 5 3 0 3 4 3
12 14 14 12 3 7 7 11 18 19 14 19 18 25 19 18 15 10 8 15 15 4 3 17 14 13 11 10 7 4 2 2 2 2 2 5 8 7 11 9 7 7 4 3 3 2 3 6 7
15 11 13 6 5 6 1 4 5 21 17 16 16 21 24 23 20 16 11 15 6 4 4 13 12 14 11 8 10 8 7 6 3 3 3 3 8 6 8 10 12 5 3 5 3 2 4 5 7
11 12 10 15 13 5 4 6 8 19 18 17 15 19 26 26 23 16 7 10 14 15 19 15 14 12 6 2 6 4 5 5 6 4 3 2 10 6 7 12 7 6 5 4 5 4 2 3 6
16 15 15 9 15 11 8 8 8 13 11 12 7 15 6 17 25 14 16 23 21 13 10 11 9 9 7 5 4 4 7 13 5 3 7 7 3 8 5 4 5 5 5 6 5 5 5 5 6
Wind_Direction
252 242 238 256 273 229 108 108 111 109 99 64 48 75 71 32 89 105 127 166 118 116 128 120 116 120 118 121 107 101 100 101 101 96 100 102 98 98 96 99 95 95 96 95 88 89 84 84 75
268 293 275 60 304 218 113 119 129 99 85 71 45 74 77 83 98 112 112 101 116 136 122 113 111 114 115 113 111 109 110 108 106 104 101 107 103 97 99 103 100 94 94 98 94 89 89 82 78
254 245 300 126 265 171 133 135 112 106 147 85 13 86 94 109 108 110 107 105 111 98 102 110 109 109 116 122 115 113 112 107 107 110 106 105 103 101 98 99 101 99 96 94 89 88 85 83 80
252 76 130 28 258 142 128 126 123 134 95 120 134 89 80 92 101 103 108 118 127 102 105 111 112 107 110 111 110 110 108 107 104 109 109 109 103 103 100 101 106 104 97 97 102 98 90 90 80
332 238 117 304 254 120 127 128 131 131 83 95 118 107 98 99 109 125 134 142 126 111 116 109 113 108 105 107 103 103 102 105 105 105 110 110 107 105 98 102 107 108 99 88 96 94 98 93 84
293 16 79 198 135 117 128 139 148 101 100 149 113 112 107 104 123 142 112 47 114 114 117 116 114 112 105 103 102 103 107 107 108 112 113 115 113 108 106 100 106 100 98 96 98 104 106 105 101
189 267 230 166 134 125 137 156 112 124 122 130 125 119 112 128 137 144 132 151 144 116 116 124 123 116 108 107 113 115 112 112 115 116 121 116 116 115 109 102 102 103 105 107 112 119 123 132 147
131 15 300 265 164 146 147 165 139 130 147 127 132 134 131 157 169 167 138 105 93 110 132 114 136 135 129 116 117 121 121 124 125 130 132 128 131 125 124 115 111 113 120 122 130 138 145 155 163
199 99 291 288 165 167 150 160 102 96 153 144 137 134 147 162 146 129 120 120 122 133 125 128 126 140 114 128 131 134 135 133 130 136 142 156 139 136 136 117 135 136 141 151 152 141 123 107 279
203 162 191 216 218 157 148 140 133 142 121 146 130 126 156 151 137 137 144 141 137 116 115 123 113 136 149 127 155 147 139 140 141 155 177 200 126 151 131 155 156 139 156 171 164 148 129 12 271
245 66 280 280 291 178 139 140 143 164 157 171 134 133 158 146 140 149 148 139 124 128 113 114 145 144 129 146 165 149 168 127 56 138 192 168 136 141 162 155 144 140 177 308 225 180 173 187 228
258 231 252 225 205 157 130 168 130 170 146 126 138 147 149 165 147 153 156 114 101 106 112 126 79 78 151 168 167 166 185 111 162 228 245 213 169 198 347 79 82 276 120 217 231 193 191 42 60
262 313 319 115 204 136 161 184 115 158 164 133 146 160 162 156 150 148 122 122 108 130 117 114 105 42 264 154 177 145 106 146 177 202 195 94 79 5 75 151 194 160 263 193 80 32 317 192 91
156 116 280 275 73 153 179 135 126 126 142 139 151 163 169 151 149 131 123 126 132 127 125 126 130 73 356 69 98 98 167 149 172 112 50 359 82 36 93 10 284 357 258 66 137 168 241 265 91
262 149 77 60 164 71 158 147 99 154 135 147 160 169 165 157 138 141 133 133 124 135 116 131 131 121 85 115 126 182 87 85 97 94 132 216 126 100 243 216 21 215 102 12 172 247 177 149 115
231 164 172 285 255 134 75 108 145 162 145 159 167 167 157 156 142 139 150 134 137 129 132 180 137 150 165 101 287 6 356 123 201 134 142 89 59 147 215 196 273 270 321 237 232 224 247 131 160
152 187 211 182 210 119 152 125 278 158 156 169 170 169 158 154 139 152 146 136 128 125 159 109 131 132 147 130 284 129 63 27 110 124 139 148 134 351 270 187 235 321 20 353 335 346 39 319 88
217 232 200 192 215 108 107 118 222 132 185 170 153 170 157 154 148 163 145 140 126 135 179 134 122 118 183 69 276 55 55 357 102 116 119 149 137 159 265 232 151 331 61 201 284 54 332 28 231
121 8 199 17 340 124 125 121 308 327 300 325 166 170 177 169 150 169 143 136 140 147 157 129 131 118 103 179 130 169 186 181 121 143 182 158 182 178 314 321 277 119 246 70 38 1 331 306 50
141 195 125 314 355 306 133 129 170 312 296 316 301 228 174 154 158 153 150 152 153 151 139 119 136 133 165 215 131 96 113 268 152 165 157 200 180 159 273 295 5 11 322 61 52 310 295 308 62
188 176 131 169 14 305 126 121 162 229 275 288 289 293 308 180 156 162 172 169 151 152 155 150 150 170 186 172 98 66 355 25 38 311 195 201 204 187 194 65 13 293 34 348 267 248 7 356 347
104 114 130 131 111 276 213 147 160 181 199 238 265 261 239 210 175 170 179 174 156 156 163 152 162 180 179 177 185 186 173 170 167 169 13 339 249 199 183 154 194 108 97 256 287 163 66 340 310
125 143 149 150 150 278 220 189 172 177 205 215 240 247 271 214 187 181 180 184 157 163 160 157 159 170 182 164 151 200 187 185 106 65 142 235 257 237 187 207 177 160 139 227 321 310 42 7 343
83 138 117 103 75 218 216 214 171 186 202 194 214 229 260 260 156 195 243 159 173 161 150 157 163 166 168 172 167 206 200 68 96 106 252 240 249 267 225 229 143 58 83 283 251 298 13 358 338
139 248 160 49 166 263 282 209 197 192 193 197 196 183 254 240 227 187 169 237 156 164 164 153 158 166 169 182 183 197 177 143 124 163 209 49 61 313 307 189 189 157 158 246 124 341 353 325 341
179 209 194 132 346 137 304 168 155 168 188 185 162 181 195 253 250 243 149 296 150 130 146 135 158 167 175 179 186 185 162 185 188 210 138 175 232 310 258 229 235 253 177 230 162 57 235 272 322
187 224 221 242 164 249 169 186 135 154 156 189 165 161 180 235 224 219 226 214 119 123 299 155 168 171 169 179 176 183 199 252 102 100 358 67 68 35 6 324 260 244 225 185 226 196 275 84 345
264 209 228 120 255 190 115 354 177 177 179 196 181 173 183 204 225 195 163 176 131 124 215 184 166 165 176 169 173 181 189 214 205 187 205 108 123 149 187 266 260 235 220 224 273 259 11 165 190
220 251 247 247 217 166 261 151 347 176 177 191 198 195 191 193 187 194 171 191 154 203 185 158 155 137 134 155 115 211 200 203 200 197 246 191 142 173 213 241 249 203 218 219 227 245 265 249 251
254 224 246 240 242 263 248 195 127 26 262 213 134 177 84 181 169 175 164 206 154 173 158 136 140 125 122 102 57 140 113 282 210 95 24 318 189 186 207 256 269 296 256 238 231 255 267 227 235